カタログに戻る

STARLINK-3861

運用中通信VLEO
NORAD 52503·PAYLOAD·🇺🇸 United States

打ち上げ May 6, 2022 から Cape Canaveral Space Force Station

Loading…

次のパス (今後24時間)

TLE

最新Source: CelesTrak SupGP

元期: Sep 14, 2026, 21:32 UTC

1 52503C 22049BE  26257.89770833  .00045023  00000+0  12884-2 0  2574
2 52503  53.1584 261.8325 0001149  91.4688  29.0906 15.35371439    19

AllMySatでSTARLINK-3861をリアルタイム追跡

Download on the App Store